Regional Weather Roundup
Issued by NWS Green Bay, WI

Home | Current Version | Previous Version | Graphics & Text | Print | Product List | Glossary Off
Versions: 1 2 3 4 5 6 7 8 9 10 11 12 13 14 15 16 17 18 19 20 21 22 23 24 25 26 27 28 29 30 31 32 33 34 35 36 37 38 39 40 41 42 43 44 45 46 47 48 49 50

804
ASUS43 KGRB 060211
RWRGRB

NORTH-CENTRAL AND NORTHEAST WISCONSIN REGIONAL WEATHER ROUNDUP
NATIONAL WEATHER SERVICE GREEN BAY WI
800 PM CST FRI FEB 05 2016

WIZ005-009-010>012-018-019-060300-
NORTH CENTRAL WISCONSIN

CITY           SKY/WX    TMP DP  RH WIND       PRES   REMARKS
IRONWOOD       CLOUDY    25  10  54 SW14      30.07F
MANITOWISH WTR CLOUDY    22  10  60 SW12      30.11F
ARBOR VITAE    CLOUDY    22  13  67 SW12G17   30.13F
EAGLE RIVER    CLOUDY    22   8  55 SW6       30.13F
LAND O LAKES   CLOUDY    24   8  51 S7        30.11F
RHINELANDER    CLOUDY    20  11  68 SW9       30.16F WCI   9
PHILLIPS       CLOUDY    21  12  69 SW7       30.15F
ANTIGO         MOCLDY    15   9  75 S3        30.19F
TOMAHAWK       CLOUDY    19  12  73 CALM      30.18F
MERRILL        CLOUDY    18  13  82 S5        30.20F
$$

WIZ013-073-060300-
NORTHEAST WISCONSIN

CITY           SKY/WX    TMP DP  RH WIND       PRES   REMARKS
IRON MOUNTAIN  CLOUDY    26   9  48 SW6       30.16F
MARINETTE      CLOUDY    21  12  68 SW8       30.24F
OCONTO         CLOUDY    16  12  84 CALM      30.26F
$$

WIZ017-030-035>037-045-060300-
CENTRAL WISCONSIN

CITY           SKY/WX    TMP DP  RH WIND       PRES   REMARKS
MEDFORD        CLOUDY    19  12  77 SW7       30.18S WCI   9
WAUSAU         CLOUDY    21  12  68 SW7       30.19F
MOSINEE        MOCLDY    18  14  86 S5        30.22F
MARSHFIELD     CLOUDY    20  11  68 SW6       30.20F
WISC RAPIDS    CLOUDY    21  14  74 S5        30.25F
STEVENS POINT  CLOUDY    16  13  88 S6        30.23F WCI   7
WAUPACA        CLOUDY    23  17  78 S3        30.26F
SHAWANO        CLOUDY    23  15  71 CALM      30.25F
CLINTONVILLE   CLOUDY    19  12  73 CALM      30.25F
WAUTOMA        CLOUDY    24  18  78 S7        30.27F
$$

WIZ038-039-048-051-060300-
FOX VALLEY

CITY           SKY/WX    TMP DP  RH WIND       PRES   REMARKS
NWS GREEN BAY  CLOUDY    21  15  78 S6        30.27F
APPLETON       CLOUDY    23  16  74 S8        30.25F
OSHKOSH        CLOUDY    23  16  74 S7        30.27F
FOND DU LAC    CLOUDY    22  15  75 S5        30.29F
$$

WIZ022-050-052-060300-
EAST CENTRAL WISCONSIN

CITY           SKY/WX    TMP DP  RH WIND       PRES   REMARKS
EPHRAIM        CLOUDY    20  14  76 SW3       30.24F
STURGEON BAY   CLOUDY    19  10  68 SW8       30.27F WCI   9
MANITOWOC      CLOUDY    25  17  72 W6        30.29F
SHEBOYGAN      CLOUDY    24  16  71 SW7       30.29F
$$

LMZ563-521-522-541>543-060300-
LAKESHORE

STATION/POSITION TIME  TEMP    WIND        PRES    VSBY  WAVE
                       AIR SEA DIR/SP/G                  HT/PER
                 (UTC) (F)     (DEG/KT/KT) (MB)    (MI)  (FT/S)
SHEBOYGAN LKSHOR 0200   26     250/  9/ 11 1027.2F
KEWAUNEE LKSHORE 0100   22      CALM  /  3 1025.1F
ALGOMA MARINA    0111             CALM       N/A
CHAMBERS ISLAND  0100   21     180/  5/ 10 1025.1F
MENOMINEE LKSHOR 0100   21     180/  7     1023.9F
$$




USA.gov is the U.S. government's official web portal to all federal, state and local government web resources and services.